Weather History for West Palm Beach, FL

Change the Weather History Date:

Wednesday, February 27, 2013

  Actual Average Record
Temperature  
Mean Temperature 70 °F 69 °F  
Max Temperature 76 °F 78 °F 89 °F (1959)
Min Temperature 63 °F 61 °F 40 °F (1965)
Degree Days  
Heating Degree Days 0 1  
Month to date heating degree days 34 47  
Since 1 July heating degree days 82 204  
Cooling Degree Days 5 5  
Month to date cooling degree days 160 123  
Year to date cooling degree days 381 231  
Growing Degree Days 18 (Base 50)    
Moisture  
Dew Point 63 °F    
Average Humidity 75    
Maximum Humidity 93    
Minimum Humidity 57    
Precipitation  
Precipitation 0.44 in 0.11 in 2.25 in (1983)
Month to date precipitation 2.40 2.70  
Year to date precipitation 3.19 5.83  
Snow  
Snow 0.00 in - - ()
Month to date snowfall 0.0  
Since 1 July snowfall 0.0  
Snow Depth 0.00 in    
Sea Level Pressure  
Sea Level Pressure 29.92 in    
Wind  
Wind Speed 7 mph (West)    
Max Wind Speed 15 mph    
Max Gust Speed 24 mph    
Visibility 8 miles    
Events Rain    
T = Trace of Precipitation, MM = Missing Value Source: NWS Daily Summary

Daily Weather History Graph

Daily Weather History Graph

Search for Another Location

Airport:

Trip Planner

Search our weather history database for the weather conditions in past years. The results will help you decide how hot, cold, wet, or windy it might be!

Date:

Astronomy

Feb. 27, 2013 Rise Set
Actual Time 6:45 AM EST 6:20 PM EST
Civil Twilight 6:22 AM EST 6:43 PM EST
Nautical Twilight 5:55 AM EST 7:10 PM EST
Astronomical Twilight 5:28 AM EST 7:37 PM EST
Moon 8:21 PM EST (2/27) 7:35 AM EST (2/27)
Length of Visible Light 12h 21m
Length of Day
11h 34m
Waning Gibbous, 96% of the Moon is Illuminated
Feb 27
Waning Gibbous
Mar 4
Last Quarter
Mar 11
New
Mar 19
First Quarter
Mar 27
Full

Hourly Weather History & Observations

Time (EST) Temp. Dew Point Humidity Pressure Visibility Wind Dir Wind Speed Gust Speed Precip Events Conditions
12:33 AM 75.2 °F 71.6 °F 89% 29.88 in 10.0 mi SW 9.2 mph - N/A   Mostly Cloudy
12:53 AM 75.9 °F 72.0 °F 87% 29.88 in 10.0 mi SW 8.1 mph - N/A   Overcast
1:53 AM 75.0 °F 72.0 °F 90% 29.87 in 10.0 mi SW 8.1 mph - N/A   Overcast
2:31 AM 75.2 °F 71.6 °F 89% 29.87 in 10.0 mi WSW 9.2 mph - N/A   Overcast
2:49 AM 75.2 °F 71.6 °F 89% 29.87 in 10.0 mi West 11.5 mph - N/A   Overcast
2:53 AM 75.0 °F 72.0 °F 90% 29.87 in 10.0 mi West 10.4 mph - N/A   Overcast
3:46 AM 71.6 °F 64.4 °F 78% 29.87 in 10.0 mi WNW 8.1 mph - N/A   Mostly Cloudy
3:53 AM 71.1 °F 64.0 °F 78% 29.87 in 10.0 mi WNW 8.1 mph - N/A   Scattered Clouds
4:53 AM 70.0 °F 64.9 °F 84% 29.88 in 10.0 mi NW 8.1 mph - N/A   Scattered Clouds
5:08 AM 69.8 °F 64.4 °F 83% 29.89 in 10.0 mi NW 8.1 mph - N/A   Overcast
5:53 AM 70.0 °F 63.0 °F 78% 29.90 in 10.0 mi NNW 9.2 mph - N/A   Overcast
6:00 AM 69.8 °F 62.6 °F 78% 29.90 in 10.0 mi NNW 12.7 mph - N/A   Overcast
6:53 AM 68.0 °F 63.0 °F 84% 29.92 in 10.0 mi NW 8.1 mph - N/A   Mostly Cloudy
7:53 AM 68.0 °F 62.1 °F 81% 29.94 in 10.0 mi NNW 9.2 mph - N/A   Scattered Clouds
8:53 AM 70.0 °F 59.0 °F 68% 29.95 in 10.0 mi NNW 9.2 mph - N/A   Mostly Cloudy
9:53 AM 72.0 °F 57.9 °F 61% 29.95 in 10.0 mi NW 10.4 mph - N/A   Mostly Cloudy
10:53 AM 73.0 °F 57.0 °F 57% 29.96 in 10.0 mi NNW 6.9 mph - N/A   Overcast
11:53 AM 73.9 °F 57.9 °F 57% 29.96 in 10.0 mi NNW 4.6 mph - N/A   Overcast
12:53 PM 72.0 °F 59.0 °F 64% 29.95 in 10.0 mi Calm Calm - N/A   Overcast
1:53 PM 71.1 °F 60.1 °F 68% 29.93 in 10.0 mi South 9.2 mph - 0.00 in Rain Light Rain
2:29 PM 71.6 °F 60.8 °F 69% 29.92 in 10.0 mi West 5.8 mph - 0.00 in Rain Light Rain
2:53 PM 71.1 °F 55.9 °F 59% 29.92 in 10.0 mi WSW 6.9 mph - 0.00 in   Overcast
3:35 PM 69.8 °F 60.8 °F 73% 29.92 in 1.5 mi WNW 5.8 mph - 0.00 in Rain Rain
3:53 PM 66.0 °F 59.0 °F 78% 29.92 in 1.5 mi West 3.5 mph - 0.05 in Rain Rain
4:10 PM 66.2 °F 60.8 °F 83% 29.92 in 4.0 mi Calm Calm - 0.03 in Rain Light Rain
4:17 PM 64.4 °F 60.8 °F 88% 29.92 in 2.0 mi Calm Calm - 0.03 in Rain Rain
4:25 PM 64.4 °F 62.6 °F 94% 29.91 in 1.5 mi Variable 3.5 mph - 0.05 in Rain Rain
4:53 PM 64.9 °F 62.1 °F 90% 29.94 in 1.5 mi SW 5.8 mph - 0.07 in Rain Rain
5:08 PM 64.4 °F 62.6 °F 94% 29.93 in 1.0 mi Calm Calm - 0.07 in Rain Heavy Rain
5:15 PM 64.4 °F 62.6 °F 94% 29.93 in 4.0 mi WSW 4.6 mph - 0.08 in Rain Light Rain
5:46 PM 64.4 °F 62.6 °F 94% 29.92 in 2.0 mi West 4.6 mph - 0.09 in Rain Rain
5:53 PM 64.9 °F 62.1 °F 90% 29.93 in 2.0 mi West 6.9 mph - 0.11 in Rain Rain
6:12 PM 64.4 °F 62.6 °F 94% 29.93 in 4.0 mi WSW 5.8 mph - 0.01 in Rain Light Rain
6:53 PM 64.9 °F 63.0 °F 93% 29.94 in 10.0 mi West 4.6 mph - 0.02 in Rain Light Rain
7:18 PM 64.4 °F 62.6 °F 94% 29.94 in 7.0 mi WSW 4.6 mph - 0.00 in Rain Light Rain
7:53 PM 64.9 °F 63.0 °F 93% 29.94 in 6.0 mi SW 3.5 mph - 0.09 in Rain Light Rain
8:53 PM 64.0 °F 62.1 °F 93% 29.95 in 4.0 mi SW 12.7 mph 20.7 mph 0.09 in Rain Rain
9:08 PM 62.6 °F 60.8 °F 94% 29.94 in 7.0 mi SSW 10.4 mph 19.6 mph 0.01 in Rain Light Rain
9:53 PM 63.0 °F 59.0 °F 87% 29.94 in 10.0 mi West 5.8 mph - 0.01 in   Overcast
10:53 PM 63.0 °F 60.1 °F 90% 29.96 in 10.0 mi West 8.1 mph - N/A   Overcast
11:53 PM 64.0 °F 62.1 °F 93% 29.95 in 10.0 mi WSW 6.9 mph - N/A   Overcast